Regional Weather Roundup
Issued by NWS

Home | Current Version | Previous Version | Text Only | Print | Product List | Glossary On
Versions: 1 2 3 4 5 6 7 8 9 10 11 12 13 14 15 16 17 18 19 20 21 22 23 24 25 26 27 28 29 30 31 32 33 34 35 36 37 38 39 40 41 42 43 44 45 46 47 48 49 50
000
ASUS42 KFFC 261903
RWRGA
WEATHER ROUNDUP FOR GEORGIA
NATIONAL WEATHER SERVICE PEACHTREE CITY GA
300 PM EDT MON SEP 26 2016

NOTE: "FAIR" INDICATES FEW OR NO CLOUDS BELOW 12,000 FEET WITH NO
SIGNIFICANT WEATHER AND/OR OBSTRUCTIONS TO VISIBILITY.

* = USE WITH CAUTION. THE STATIONS MARKED WITH AN ASTERISK MAY NOT
REPORT WEATHER SUCH AS PRECIPITATION, FOG, OR THUNDER AND ARE NOT
QUALITY CONTROLLED BY NWS.

THE REMARK "TC" DENOTES TEMPERATURE READING IN DEGREES CELSIUS.

GAZ001>058-262000-
NORTH GEORGIA

CITY           SKY/WX    TMP DP  RH WIND       PRES   REMARKS
ATLANTA        MOSUNNY   86  60  41 VRB6      30.04F
ATHENS         SUNNY     88  68  51 CALM      30.04F HX  91
CHAMBLEE       MOSUNNY   87  62  43 MISG      30.03F
PEACHTREE CITY SUNNY     86  62  44 CALM      30.04F
ROME           MOSUNNY   91  62  37 S7        29.97F HX  91
WEST ATLANTA   MOSUNNY   87  62  43 VRB3      30.02F
GAINESVILLE    SUNNY     84  64  50 SW7       30.07F
CARTERSVILLE   MOSUNNY   87  64  46 VRB6      30.01F


CITY           SKY/WX    TMP DP  RH WIND       PRES   REMARKS
DALTON*        CLOUDY    88  64  45 S6        30.00F
LAWRENCEVILLE* MOSUNNY   86  64  48 CALM      30.04F
MARIETTA       PTSUNNY   87  65  48 S8        30.03F
KENNESAW*      MOSUNNY   86  63  45 S6        29.99F
CANTON*        MOSUNNY   86  54  32 SE5       30.05F
BLAIRSVILLE*     N/A    N/A N/A N/A MISG      30.07F
$$

GAZ059>098-102>109-262000-
CENTRAL GEORGIA

CITY           SKY/WX    TMP DP  RH WIND       PRES   REMARKS
AUGUSTA-BUSH   PTSUNNY   84  70  62 SE5       30.01F
AUGUSTA-DANIEL MOSUNNY   86  65  49 E8        30.03F
COLUMBUS       CLOUDY    87  66  49 NE5       29.99F
MACON          PTSUNNY   88  67  49 E7        30.02F HX  91
ROBINS AFB     PTSUNNY   87  69  54 VRB6      30.00F HX  91


CITY           SKY/WX    TMP DP  RH WIND       PRES   REMARKS
LAGRANGE*      CLOUDY    88  68  51 CALM      30.01F HX  91
MILLEDGEVILLE* PTSUNNY   88  68  51 CALM      30.02F HX  91
$$

GAZ099>101-110>166-262000-
SOUTH GEORGIA

CITY           SKY/WX    TMP DP  RH WIND       PRES   REMARKS
SAVANNAH       CLOUDY    80  72  76 E6        30.02F
VALDOSTA       PTSUNNY   88  72  58 NE18G24   29.97F HX  94
ALMA           MOSUNNY   85  69  58 VRB6      29.99F
ST SIMONS      CLOUDY    82  71  69 NE13      29.98F
ALBANY         PTSUNNY   91  67  44 SE5       29.99F HX  94
HUNTER AFB     CLOUDY    81  77  86 E9        29.99F
MOODY AFB      PTSUNNY   80  69  69 SE8       29.97F THUNDER
BRUNSWICK      CLOUDY    82  73  74 NE10G16   29.99F


CITY           SKY/WX    TMP DP  RH WIND       PRES   REMARKS
BAINBRIDGE*    SUNNY     90  70  51 NE6       29.96F HX  95
MOULTRIE*      LGT RAIN  79  73  83 N3        30.00F
VIDALIA*       MOSUNNY   88  75  66 S6        30.01F HX  97
WAYCROSS*      MOSUNNY   91  74  58 E10G16    29.98F HX 100
DOUGLAS*       PTSUNNY   88  68  51 SE7       30.00F HX  91
$$



USA.gov is the U.S. government's official web portal to all federal, state and local government web resources and services.